Юрбаркас

Литва     55°04′49″N   22°45′31″E
темп.,
°C
ветер,
м/с
пор.,
м/с
влажн.,
%
обл.,
%
осадки,
мм/ч
давл.,
гПа
погр.,
м
11 мая, вт
вт1100:00+14юв615825 0.0 1018380
03:00+13юв6158498 0.0 1018367
06:00+12юв51486100 0.0 1018319
09:00+15юв7157854 0.0 1019537
12:00+19ююв8126215 0.0 1018918
15:00+21юв810595 0.0 10181208
18:00+21юв711632 0.0 10171129
21:00+15юв513765 0.0 1016410
12 мая, ср
ср1200:00+13юв515745 0.0 1017387
03:00+11вюв514795 0.0 1016326
06:00+10вюв5138380 0.0 1016308
09:00+15юв613758 0.0 1016456
12:00+20юв811675 0.0 10161133
15:00+20юв8105999 0.0 10161397
18:00+19юв69580 0.0 10151365
21:00+14вюв411760 0.0 1014309
13 мая, чт
чт1300:00+10вюв37820 0.0 1014126
03:00+9вюв22855 0.0 101330
06:00+10св1183100 0.0 101120
09:00+11всв3788100 0.3 1009327
12:00+12ссв2488100 1.4 1007682
15:00+13в568563 1.8 1006727
18:00+13вюв578199 0.9 1005849
21:00+10юв369687 1.9 1005281
14 мая, пт
пт1400:00+9вюв4897100 1.9 1005463
03:00+9в4898100 9.9 1004454
06:00+9вюв3897100 2.0 1004404
09:00+10вюв3589100 2.0 1004649
12:00+12в348691 0.1 1004570
15:00+13в448465 0.6 1004636
18:00+13в228040 0.1 1004678
21:00+12юв228267 0.1 100430
15 мая, сб
сб1500:00+9юв229515 0.0 100531
03:00+8юв239587 0.0 100550
06:00+8ююв34965 0.0 100571
09:00+13юз358544 0.0 1006448
12:00+15юз447394 0.1 10061003
15:00+15юз5676100 0.1 1007830
18:00+15з456939 0.1 10081136
21:00+11зсз22850 0.1 100816